This is the latest recevied weather packets stored in our database for station/object DG1JLA-3. If no packets are shown the sender has not sent any weather packets the latest 10 day(s).
| Time | Temp. | Humidity | Pressure | Rain* | Wind** | Luminosity | Snow |
|---|---|---|---|---|---|---|---|
| 1777197024 | 9.44° C | 61% | 1028.1 hPa | 0 mm | - | - | - |
| 1777196724 | 9.44° C | 62% | 1028.2 hPa | 0 mm | - | - | - |
| 1777196424 | 9.44° C | 64% | 1028.3 hPa | 0 mm | - | - | - |
| 1777196124 | 8.89° C | 67% | 1028.3 hPa | 0 mm | - | - | - |
| 1777195824 | 8.89° C | 66% | 1028.3 hPa | 0 mm | - | - | - |
| 1777195524 | 8.33° C | 67% | 1028.3 hPa | 0 mm | - | - | - |
| 1777195224 | 7.78° C | 69% | 1028.2 hPa | 0 mm | - | - | - |
| 1777194924 | 7.78° C | 68% | 1028.3 hPa | 0 mm | - | - | - |
| 1777194624 | 7.22° C | 71% | 1028.6 hPa | 0 mm | - | - | - |
| 1777194324 | 7.78° C | 71% | 1028.1 hPa | 0 mm | - | - | - |
| 1777194024 | 8.33° C | 70% | 1028.1 hPa | 0 mm | - | - | - |
| 1777193724 | 7.78° C | 70% | 1028.1 hPa | 0 mm | - | - | - |
| 1777193424 | 7.22° C | 71% | 1028.1 hPa | 0 mm | - | - | - |
| 1777193124 | 7.22° C | 72% | 1028.2 hPa | 0 mm | - | - | - |
| 1777192824 | 6.67° C | 73% | 1028.2 hPa | 0 mm | - | - | - |
| 1777192524 | 6.67° C | 73% | 1028.1 hPa | 0 mm | - | - | - |
| 1777192224 | 6.67° C | 73% | 1028.2 hPa | 0 mm | - | - | - |
| 1777191924 | 6.67° C | 73% | 1028.2 hPa | 0 mm | - | - | - |
| 1777191624 | 6.67° C | 73% | 1028.2 hPa | 0 mm | - | - | - |
| 1777191324 | 6.11° C | 74% | 1028.2 hPa | 0 mm | - | - | - |
| 1777191024 | 6.11° C | 74% | 1028.2 hPa | 0 mm | - | - | - |
| 1777190724 | 6.11° C | 74% | 1028.2 hPa | 0 mm | - | - | - |
| 1777190424 | 6.11° C | 74% | 1028.1 hPa | 0 mm | - | - | - |
| 1777190124 | 6.11° C | 74% | 1028.1 hPa | 0 mm | - | - | - |
| 1777189824 | 6.11° C | 74% | 1028.1 hPa | 0 mm | - | - | - |
* Rain latest hour (hover to see other rain measurements)
** Current wind speed in m/s (hover to see current wind gust speed)